TimeCST,TemperatureF,Dew PointF,Humidity,Sea Level PressureIn,VisibilityMPH,Wind Direction,Wind SpeedMPH,Gust SpeedMPH,PrecipitationIn,Events,Conditions,WindDirDegrees,DateUTC
12:53 AM,21.0,8.1,57,30.16,10.0,WSW,5.8,-,N/A,,Clear,240,2014-02-27 06:53:00
1:53 AM,21.0,9.0,60,30.16,10.0,West,6.9,-,N/A,,Clear,270,2014-02-27 07:53:00
2:53 AM,21.9,9.0,58,30.14,10.0,West,3.5,-,N/A,,Clear,260,2014-02-27 08:53:00
3:53 AM,21.9,14.0,72,30.13,10.0,Calm,Calm,-,N/A,,Clear,0,2014-02-27 09:53:00
4:53 AM,19.9,12.9,74,30.14,10.0,SW,3.5,-,N/A,,Clear,230,2014-02-27 10:53:00
5:53 AM,21.9,12.9,68,30.14,10.0,Calm,Calm,-,N/A,,Clear,0,2014-02-27 11:53:00
6:53 AM,21.0,10.9,65,30.15,10.0,Calm,Calm,-,N/A,,Clear,0,2014-02-27 12:53:00
7:53 AM,25.0,12.9,60,30.15,10.0,Calm,Calm,-,N/A,,Clear,0,2014-02-27 13:53:00
8:53 AM,30.0,12.0,47,30.16,10.0,Calm,Calm,-,N/A,,Clear,0,2014-02-27 14:53:00
9:53 AM,37.0,12.0,36,30.15,10.0,Calm,Calm,-,N/A,,Clear,0,2014-02-27 15:53:00
10:53 AM,41.0,14.0,33,30.14,10.0,Calm,Calm,-,N/A,,Clear,0,2014-02-27 16:53:00
11:53 AM,46.0,15.1,29,30.11,10.0,NNW,3.5,-,N/A,,Clear,340,2014-02-27 17:53:00
12:53 PM,50.0,17.1,27,30.07,10.0,Calm,Calm,-,N/A,,Clear,0,2014-02-27 18:53:00
1:53 PM,52.0,16.0,24,30.04,10.0,Variable,6.9,-,N/A,,Clear,0,2014-02-27 19:53:00
2:53 PM,54.0,15.1,22,29.99,10.0,WSW,8.1,-,N/A,,Clear,240,2014-02-27 20:53:00
3:53 PM,54.0,12.9,20,29.97,10.0,Calm,Calm,-,N/A,,Clear,0,2014-02-27 21:53:00
4:53 PM,54.0,12.9,20,29.95,10.0,South,3.5,-,N/A,,Clear,170,2014-02-27 22:53:00
5:53 PM,52.0,14.0,22,29.93,10.0,ENE,4.6,-,N/A,,Clear,70,2014-02-27 23:53:00
6:53 PM,46.9,17.1,30,29.94,10.0,ENE,5.8,-,N/A,,Clear,60,2014-02-28 00:53:00
7:53 PM,45.0,19.0,36,29.94,10.0,ENE,4.6,-,N/A,,Clear,70,2014-02-28 01:53:00
8:53 PM,44.1,17.1,34,29.94,10.0,East,3.5,-,N/A,,Clear,100,2014-02-28 02:53:00
9:53 PM,42.1,18.0,38,29.95,10.0,Calm,Calm,-,N/A,,Clear,0,2014-02-28 03:53:00
10:53 PM,37.0,21.0,52,29.96,10.0,NE,3.5,-,N/A,,Clear,40,2014-02-28 04:53:00
11:53 PM,35.1,21.9,59,29.95,10.0,NE,4.6,-,N/A,,Clear,40,2014-02-28 05:53:00